Temperature
20 20 20 20 24 24 23 23 23 23 22 21 21 21 22 21 21 20 17 17 17 16 16 16 17 17 17 17 17 17 17 17 17 17 17 17 17 17 17 17 17 17 17 17 18 17 17 18 18
20 20 20 22 25 24 23 23 23 22 22 21 21 21 21 20 19 18 17 17 17 16 16 16 17 17 17 17 17 17 17 17 17 17 17 17 17 17 17 17 17 17 17 17 17 17 17 17 17
20 21 22 24 24 24 23 23 23 22 21 21 21 21 21 20 18 18 17 17 17 16 16 16 17 17 17 17 17 17 17 17 17 17 17 17 17 17 17 17 17 17 17 17 17 17 17 17 17
20 21 23 24 23 23 23 23 23 22 21 21 21 21 19 18 18 17 17 17 17 16 16 16 17 16 16 16 16 17 17 17 17 17 17 17 17 17 17 17 17 17 17 17 17 17 17 17 17
21 23 24 24 23 23 23 23 22 23 22 21 21 21 19 18 17 17 17 17 17 17 16 16 17 16 16 16 16 16 16 16 16 16 16 16 16 16 17 17 17 17 17 17 17 17 17 17 17
22 24 24 23 23 23 23 22 22 23 22 21 21 21 19 18 17 17 17 17 17 16 16 16 16 16 16 16 16 16 16 16 16 16 16 16 16 16 16 16 17 17 16 17 17 17 17 17 16
23 24 24 23 23 23 23 22 23 23 22 21 21 21 19 18 17 17 17 17 16 16 16 16 16 16 16 16 16 16 16 16 16 16 16 16 16 16 16 16 16 16 16 16 16 16 16 16 16
22 24 23 23 23 23 23 22 22 22 22 20 20 21 20 18 17 17 17 17 16 16 16 16 16 16 16 16 16 16 16 16 16 16 16 16 16 16 16 16 16 16 16 16 16 16 16 16 16
22 24 23 23 23 23 23 23 22 21 21 20 20 20 19 18 18 17 17 17 17 16 16 16 16 16 16 16 16 16 16 16 16 16 16 16 16 16 15 16 16 16 16 16 16 16 16 16 16
23 24 23 23 24 23 23 23 22 22 22 21 20 19 18 18 18 18 18 18 17 17 17 16 16 16 16 16 15 15 15 15 15 16 15 15 15 15 15 16 16 16 16 16 16 16 16 15 15
23 23 23 23 23 22 22 22 22 22 22 22 21 19 18 18 18 18 18 18 17 17 17 17 16 16 16 16 15 15 15 15 15 15 15 15 15 15 15 15 15 15 15 15 15 15 15 15 15
23 23 23 23 22 22 22 22 22 22 22 21 20 19 19 18 18 18 18 18 17 17 17 16 16 16 16 16 15 15 15 15 15 15 15 15 15 15 15 15 15 15 15 15 15 15 15 15 15
23 23 22 22 21 22 22 22 22 21 20 20 19 19 19 19 18 18 18 18 17 17 17 17 16 16 16 16 15 15 15 15 15 15 15 15 15 15 15 15 15 15 15 15 15 15 15 15 15
23 22 22 22 22 22 22 22 22 21 20 20 19 19 19 19 18 18 18 18 18 17 17 16 16 16 16 16 16 15 15 15 15 15 15 15 15 15 15 15 15 15 15 15 15 15 15 15 15
22 23 23 23 23 22 22 23 23 21 20 20 20 19 19 19 18 18 18 18 18 17 17 17 16 16 16 16 16 15 15 15 15 15 15 15 15 15 15 15 15 15 15 15 15 15 15 15 15
23 23 23 23 23 22 23 23 23 21 21 20 20 20 19 19 18 18 18 18 18 17 17 17 16 16 16 16 16 15 15 15 15 15 15 15 15 15 15 15 15 15 15 15 15 15 15 15 14
23 23 23 23 23 23 23 23 23 21 21 21 20 20 19 19 18 18 18 18 18 17 17 17 16 16 16 16 16 15 15 15 15 15 15 15 15 15 15 15 15 15 15 15 15 14 14 14 14
23 24 23 23 23 23 23 23 23 21 21 21 21 20 20 19 19 18 18 18 17 17 17 17 16 16 16 16 16 15 15 15 15 15 15 15 15 15 15 15 14 15 15 14 14 14 14 14 14
24 23 23 23 23 23 23 23 23 22 21 21 21 21 20 19 19 18 18 17 17 17 17 17 16 16 16 16 16 15 15 15 15 15 14 14 15 15 15 15 15 15 14 14 14 14 14 14 14
23 23 23 23 23 23 23 23 23 22 21 21 21 21 20 20 19 18 18 17 17 17 17 17 17 16 16 16 15 15 15 15 15 15 15 14 14 15 15 14 14 14 14 14 14 14 14 14 14
23 23 23 23 23 23 23 23 23 23 22 20 20 20 20 20 20 19 18 18 17 17 17 17 17 16 16 16 15 15 15 15 15 15 14 14 14 14 14 14 14 14 14 14 14 14 14 14 14
23 23 23 23 23 23 23 23 24 24 23 22 21 20 20 19 19 19 18 18 17 17 17 17 16 16 16 16 15 15 15 15 15 15 15 14 14 14 14 14 14 14 14 14 14 14 14 14 14
23 23 23 23 23 23 23 23 24 24 23 23 22 20 20 19 19 18 18 17 17 17 17 17 16 16 16 16 15 15 15 15 15 15 15 14 14 14 14 14 14 14 14 14 14 14 14 14 14
23 23 23 23 23 22 23 23 23 24 23 23 22 21 20 19 18 18 18 17 17 17 17 16 16 16 16 16 15 15 15 15 15 15 15 14 14 14 14 14 14 14 14 14 14 14 14 14 14
23 23 22 22 22 23 23 23 23 23 23 22 22 21 20 19 18 18 17 17 17 17 17 16 16 16 16 16 15 15 15 15 15 15 15 15 14 14 14 14 14 14 14 14 14 14 14 14 14
23 23 22 22 22 23 23 23 23 22 21 21 21 20 19 18 18 17 17 17 16 16 16 16 16 16 16 15 15 15 15 15 15 15 15 15 15 14 14 14 14 14 14 14 14 14 14 14 14
22 23 23 23 22 22 23 23 23 22 21 21 20 20 19 18 17 17 16 16 16 16 16 16 16 16 15 15 15 15 15 15 15 15 15 14 14 14 14 14 14 14 14 14 14 14 14 14 14
22 23 22 22 21 21 22 23 23 22 21 21 20 20 19 18 17 17 16 16 16 16 16 16 15 15 15 15 15 15 15 15 14 14 14 14 14 14 14 14 14 14 14 14 14 14 14 13 13
22 22 22 22 22 21 22 22 23 22 21 21 20 19 18 17 17 16 16 16 16 15 15 15 15 15 15 15 15 15 15 15 14 14 14 14 14 14 14 14 14 14 14 14 14 14 14 14 13
22 22 22 21 21 21 21 22 22 21 21 20 20 19 18 17 17 16 16 15 15 15 15 15 15 15 15 15 15 15 14 14 14 14 14 14 14 14 14 14 14 14 14 14 14 14 14 13 13
Wind_Speed
4 2 2 2 2 3 5 5 4 4 4 5 5 5 5 6 5 4 3 4 4 5 5 6 8 8 9 9 9 10 10 11 11 11 10 10 11 11 11 11 11 11 11 11 12 12 12 12 12
1 1 2 2 1 4 5 4 5 5 5 4 4 4 5 6 6 5 4 4 4 5 6 7 8 8 9 9 9 10 10 10 10 10 10 10 11 11 11 11 11 11 11 12 12 12 12 12 12
1 1 1 0 2 4 5 5 6 6 4 2 3 4 4 5 4 4 4 4 4 6 6 9 8 8 9 9 9 10 10 10 9 10 10 10 10 11 11 11 11 12 12 12 12 12 12 12 12
2 1 0 3 8 6 5 5 5 5 4 3 3 5 5 5 3 4 5 4 5 6 7 9 8 9 9 9 9 9 10 9 9 9 9 10 10 10 10 11 11 12 12 12 12 12 12 13 13
1 1 3 6 7 5 5 4 3 3 3 3 3 6 6 5 5 6 5 4 5 6 6 8 8 8 9 9 9 9 9 9 10 10 9 9 10 10 11 11 12 12 12 13 13 13 13 13 12
1 1 3 5 6 5 4 3 3 4 4 4 4 5 5 5 5 5 5 4 5 5 6 7 8 8 9 9 9 9 9 9 9 10 9 9 10 11 11 11 12 12 13 14 13 13 13 13 13
0 1 4 6 6 5 4 3 2 3 4 4 3 4 5 6 5 5 4 5 5 5 5 5 6 7 7 9 9 9 9 9 10 10 10 10 10 10 11 11 12 12 13 13 14 14 14 13 13
0 2 5 5 5 4 4 3 3 2 4 4 2 3 4 6 6 5 5 4 4 4 4 5 5 5 6 7 9 9 9 9 10 10 9 8 9 10 10 11 12 12 12 13 13 14 14 14 13
1 2 4 4 4 4 4 4 3 3 5 4 3 3 5 8 7 6 5 4 4 3 3 4 4 5 5 6 6 6 7 7 6 8 8 6 7 8 9 13 12 12 12 12 12 13 13 12 12
0 2 4 3 3 4 3 3 3 4 4 4 5 5 7 8 7 6 4 4 4 3 3 3 3 4 5 4 5 4 5 5 6 7 7 6 7 8 9 11 12 12 12 12 11 10 8 6 8
2 3 4 3 3 3 3 2 2 3 2 2 5 7 8 7 6 5 3 3 2 2 3 2 3 3 4 4 4 3 4 4 5 6 6 6 6 6 6 6 7 8 8 8 8 6 7 8 7
3 3 2 3 3 2 2 2 2 1 1 3 4 7 8 7 5 4 3 2 2 2 2 2 2 3 3 4 3 3 3 4 4 5 6 5 4 5 5 5 6 6 6 6 6 6 7 8 8
4 4 3 3 3 2 3 2 1 1 1 4 6 7 7 6 5 4 3 2 2 2 2 2 2 3 3 4 3 3 4 4 5 4 4 5 4 4 5 5 5 6 6 6 5 6 7 7 7
4 4 3 2 3 2 3 2 2 1 4 6 7 7 6 6 5 4 3 3 3 3 2 2 2 3 3 3 3 3 4 4 4 4 4 5 4 4 4 5 5 5 5 5 6 6 6 6 6
4 4 3 2 2 2 2 2 2 2 5 6 6 6 6 5 5 5 4 3 3 3 3 3 2 2 3 3 3 3 3 4 3 4 4 4 4 4 4 4 4 5 5 6 6 6 6 6 6
3 3 2 2 2 2 4 2 2 3 5 5 5 5 6 6 6 5 4 3 3 3 3 3 3 3 3 3 3 3 4 3 3 3 3 3 3 4 4 3 4 5 4 4 4 4 4 5 5
4 2 1 2 2 2 4 2 1 3 5 5 5 6 6 6 6 5 5 4 4 4 4 4 3 3 4 3 3 3 3 3 3 3 3 2 3 3 4 3 4 4 4 4 4 4 4 5 5
3 2 2 1 1 4 4 4 3 3 5 5 5 6 6 6 6 6 5 4 4 4 4 4 4 3 4 3 3 3 3 3 3 3 3 3 3 3 4 3 4 4 3 3 4 4 4 4 4
2 3 3 2 1 4 5 5 4 4 5 6 6 6 6 6 6 6 6 5 5 5 5 5 5 4 4 3 2 2 2 2 2 2 3 2 3 3 3 3 3 3 3 3 4 4 5 4 3
5 5 3 2 1 3 5 6 5 4 5 6 6 7 7 7 7 7 7 6 6 6 5 5 5 5 4 3 2 2 2 2 2 2 2 2 3 3 3 3 3 3 3 3 4 3 2 2 1
6 6 5 5 4 5 6 6 5 4 4 4 5 6 6 7 7 8 8 7 7 6 6 5 5 5 5 4 3 3 3 3 3 3 2 2 2 2 2 3 3 3 3 3 3 3 2 1 1
6 4 6 6 6 4 4 4 3 4 4 4 5 6 6 6 7 7 7 7 7 6 6 6 6 6 5 5 4 4 3 3 2 2 2 3 2 2 2 2 2 2 2 2 2 2 1 1 1
4 2 5 7 7 7 6 6 2 3 3 3 4 5 6 6 7 7 7 6 6 6 5 5 6 6 5 5 5 4 3 2 2 2 3 3 3 2 2 2 2 2 2 2 2 2 1 1 1
3 4 5 6 6 6 5 6 3 1 2 2 2 3 5 6 7 6 6 6 5 5 5 5 5 5 5 5 6 5 4 3 3 3 3 2 2 2 3 2 2 2 2 2 2 2 2 1 1
5 6 4 5 5 3 2 5 3 1 1 1 1 2 3 4 6 6 6 6 6 6 6 5 6 6 6 6 6 5 5 4 4 3 3 2 2 2 2 2 2 2 2 2 2 2 2 2 2
5 7 5 4 4 4 4 5 1 1 1 1 0 1 2 3 4 5 6 6 6 7 6 6 6 6 5 5 5 5 5 4 3 3 3 3 2 2 2 2 2 2 2 2 2 1 1 1 1
5 6 6 7 7 7 4 3 2 2 1 1 1 1 2 2 3 4 5 5 6 6 6 7 6 6 5 5 5 5 5 4 4 4 3 3 2 2 2 3 3 3 3 2 2 2 2 1 1
4 4 5 6 5 7 6 6 3 2 2 1 1 1 1 2 3 4 4 5 5 5 6 6 6 6 6 5 5 3 4 4 3 4 4 3 3 2 3 3 3 3 3 3 2 2 2 2 1
5 6 6 6 6 6 6 3 1 1 1 2 2 2 2 3 3 4 4 5 5 5 5 6 6 6 5 5 5 4 4 4 4 3 3 3 3 3 3 3 3 3 3 3 3 2 2 2 2
7 7 8 8 8 8 8 4 3 1 1 1 1 1 2 3 3 4 4 5 5 5 5 5 5 5 5 5 5 4 4 4 4 3 3 3 3 3 3 3 4 3 3 3 3 3 3 3 2
Wind_Direction
176 173 223 247 205 96 80 77 78 82 72 61 57 59 56 41 31 64 73 53 40 43 43 51 44 47 48 52 57 59 60 63 66 68 72 72 72 72 72 73 74 76 77 75 77 78 80 84 87
160 192 242 257 196 112 91 89 89 75 93 99 73 64 66 65 59 83 86 64 51 52 51 51 52 53 53 58 63 63 63 66 68 69 71 72 73 71 71 72 75 78 79 77 76 76 79 81 85
140 249 300 10 77 83 98 97 101 98 105 96 82 59 51 67 75 82 79 82 67 61 57 60 53 58 58 61 64 65 65 66 69 71 72 75 74 72 72 74 74 76 80 80 78 76 77 79 82
213 201 141 89 89 78 92 111 122 124 106 78 98 90 78 63 68 86 97 91 77 70 64 65 55 60 61 62 64 65 66 66 67 70 74 76 78 76 76 77 77 78 79 81 80 78 76 78 82
236 219 118 104 92 92 94 103 134 119 98 93 98 95 91 83 88 100 104 91 78 74 72 73 62 58 59 61 62 64 65 64 65 68 74 77 78 76 76 77 79 80 81 81 81 81 80 80 81
196 195 132 112 107 105 107 117 129 102 100 108 104 98 93 108 106 104 104 93 82 77 77 81 82 66 58 57 59 61 63 64 66 68 74 77 78 78 77 79 82 82 81 81 81 82 83 81 80
351 111 113 119 121 115 106 116 112 107 103 95 103 103 114 124 116 117 109 100 91 85 80 78 81 87 86 68 57 58 63 64 65 67 72 76 78 80 82 83 83 83 84 85 82 80 80 77 76
64 137 129 126 128 108 110 118 92 90 96 101 111 100 120 139 138 131 116 111 102 92 81 79 80 72 73 81 70 60 63 65 67 70 72 80 90 90 89 89 83 83 85 85 83 83 81 77 74
225 158 130 124 128 114 129 131 106 107 118 116 101 76 106 134 146 140 129 123 110 95 85 81 80 77 73 70 75 76 77 72 82 85 83 85 80 82 86 75 79 83 87 86 86 86 85 84 79
164 116 99 101 112 119 130 130 135 148 132 129 128 118 130 144 152 147 139 127 117 107 98 89 82 81 85 79 79 68 69 72 67 67 71 73 79 79 85 88 84 86 90 91 89 92 98 91 86
82 95 102 113 119 131 134 124 146 165 129 139 146 146 147 153 154 154 142 119 105 103 102 90 80 81 87 90 79 71 69 75 72 69 74 75 83 92 88 91 95 95 98 91 96 98 79 78 76
111 97 114 117 123 150 146 137 135 192 71 108 137 147 155 158 158 163 156 136 126 114 111 109 90 91 93 89 87 84 80 77 77 74 73 76 79 80 83 82 83 87 87 86 88 85 84 80 81
119 105 102 118 124 145 152 163 156 167 140 135 140 151 162 165 166 166 166 153 150 149 145 120 111 91 90 86 86 96 84 77 82 74 74 77 80 82 85 84 80 82 87 92 85 85 82 79 78
115 119 125 134 139 151 162 179 181 170 157 155 158 164 171 176 174 167 167 163 164 163 139 134 132 112 103 94 91 86 86 87 81 79 78 80 82 85 89 88 83 81 84 86 90 88 85 81 79
140 140 144 152 167 177 197 188 192 180 171 172 176 172 174 180 181 181 179 178 170 161 150 131 134 136 119 96 86 88 92 93 86 85 81 84 84 95 98 90 92 92 97 98 93 91 87 86 86
183 196 182 155 188 192 228 228 135 174 189 190 189 182 182 182 188 184 184 184 175 168 158 143 146 145 128 114 103 95 89 86 86 81 71 78 91 95 94 96 96 96 98 97 95 94 91 90 86
200 201 191 161 191 209 229 251 141 183 200 203 200 196 193 186 190 187 187 190 185 178 168 155 153 148 138 126 116 102 97 89 84 87 79 79 88 99 104 101 107 103 100 97 97 91 92 92 89
199 212 224 237 181 224 236 252 241 203 213 218 210 205 200 198 193 187 186 184 181 179 171 158 152 149 139 138 130 119 104 95 86 86 82 75 88 97 111 115 115 112 108 102 105 102 96 92 95
233 242 261 284 251 254 258 265 267 234 225 229 223 213 206 202 192 183 182 180 178 176 177 169 167 157 153 148 146 137 124 116 102 87 79 87 101 110 117 120 118 116 109 112 115 111 111 110 111
227 243 258 263 235 264 277 274 268 238 231 234 232 219 210 204 191 181 184 183 185 179 181 179 178 170 165 161 161 154 141 127 109 107 101 106 117 124 132 135 127 121 111 117 121 126 125 124 167
235 248 263 278 274 245 276 265 229 214 218 226 230 225 212 204 199 189 190 189 186 185 184 183 185 178 174 168 163 156 148 152 140 134 126 119 126 134 143 140 138 134 138 136 144 152 164 160 170
249 249 256 265 270 272 263 285 241 215 217 220 220 213 210 203 205 198 195 193 192 191 188 189 186 186 179 174 177 173 177 170 164 149 144 150 141 136 145 152 151 145 141 142 151 156 163 194 196
267 255 251 259 265 269 249 268 257 201 224 219 210 209 207 204 202 198 195 193 188 184 187 190 186 186 184 184 185 191 188 172 155 147 153 156 139 140 148 155 156 151 151 152 152 162 191 223 260
225 223 230 239 250 255 250 257 271 213 260 248 208 202 204 202 198 196 187 179 176 171 173 178 181 180 182 188 190 194 187 175 165 165 160 162 152 153 149 152 160 158 161 169 176 189 194 237 257
227 250 249 232 229 251 238 251 261 45 334 285 235 193 185 187 191 188 180 175 172 169 169 174 178 176 181 190 194 194 192 190 185 179 174 178 171 171 165 165 173 159 167 170 176 189 204 219 233
232 245 260 274 271 272 227 243 209 90 360 299 258 161 149 166 180 178 175 173 171 171 173 177 179 179 183 190 194 197 191 198 192 190 188 187 183 182 176 177 177 167 169 172 184 207 201 211 205
232 235 264 277 280 274 243 234 221 169 187 105 100 134 156 163 168 174 171 169 170 172 177 182 181 181 183 186 189 192 194 199 197 198 199 196 190 180 184 180 177 176 175 181 191 207 210 211 222
256 243 232 246 264 262 253 243 243 203 211 212 216 192 174 163 160 163 168 171 169 169 174 178 181 182 183 184 183 181 188 195 201 203 205 207 200 188 185 184 181 183 187 189 187 203 220 215 206
216 221 235 247 258 269 269 251 48 289 230 233 230 207 167 167 160 159 165 169 169 167 167 174 177 181 182 182 178 176 181 191 193 194 199 207 202 195 199 195 196 194 195 191 185 206 207 221 219
245 244 237 248 249 252 270 268 120 159 275 267 250 193 168 157 153 153 158 162 167 170 173 176 178 178 180 182 179 179 181 184 190 192 200 199 194 198 206 203 201 199 202 206 203 202 207 217 228
Height
1517 1517 1517 1518 1516 1516 1523 1524 1522 1524 1525 1528 1528 1527 1527 1529 1531 1538 1539 1536 1535 1534 1533 1532 1530 1530 1529 1528 1528 1527 1526 1525 1525 1525 1524 1524 1524 1523 1523 1523 1522 1522 1522 1521 1521 1521 1521 1521 1521
1518 1517 1519 1518 1514 1521 1527 1524 1524 1526 1529 1530 1530 1530 1530 1532 1535 1537 1537 1536 1536 1535 1534 1533 1531 1531 1530 1530 1529 1528 1528 1527 1527 1526 1526 1526 1526 1525 1525 1525 1524 1524 1523 1523 1523 1523 1523 1523 1523
1518 1518 1520 1516 1517 1522 1527 1525 1526 1529 1530 1530 1531 1532 1533 1535 1537 1538 1538 1537 1537 1536 1535 1534 1532 1532 1531 1531 1530 1530 1529 1529 1528 1528 1528 1528 1527 1527 1527 1526 1526 1525 1525 1525 1525 1525 1525 1524 1524
1520 1521 1521 1518 1523 1524 1524 1525 1527 1529 1531 1531 1532 1533 1536 1538 1538 1539 1538 1538 1538 1537 1536 1535 1534 1533 1533 1532 1532 1531 1531 1530 1530 1530 1529 1529 1529 1528 1528 1528 1527 1527 1527 1527 1526 1526 1526 1526 1526
1520 1520 1519 1522 1525 1526 1526 1527 1528 1528 1530 1532 1532 1533 1537 1539 1539 1539 1539 1539 1539 1539 1538 1536 1535 1534 1534 1534 1533 1533 1532 1532 1531 1531 1531 1531 1530 1530 1530 1529 1529 1529 1528 1528 1528 1528 1528 1528 1528
1522 1519 1520 1526 1527 1526 1527 1529 1529 1529 1531 1533 1533 1534 1538 1540 1540 1540 1540 1540 1540 1539 1539 1538 1536 1536 1535 1535 1534 1534 1534 1533 1533 1533 1532 1532 1532 1532 1531 1531 1531 1530 1530 1530 1530 1530 1530 1529 1530
1522 1519 1522 1525 1528 1527 1528 1530 1529 1530 1531 1534 1535 1535 1538 1540 1540 1540 1541 1541 1541 1540 1540 1540 1539 1538 1537 1536 1536 1535 1535 1535 1534 1534 1534 1534 1533 1533 1533 1533 1532 1532 1532 1532 1532 1531 1531 1531 1531
1522 1521 1524 1525 1528 1528 1529 1531 1531 1532 1533 1536 1536 1535 1538 1541 1541 1541 1542 1542 1542 1542 1541 1541 1540 1540 1540 1539 1537 1537 1536 1536 1536 1536 1535 1535 1535 1535 1534 1534 1534 1534 1533 1533 1533 1533 1533 1533 1532
1523 1522 1525 1526 1527 1528 1530 1530 1533 1534 1534 1536 1537 1537 1539 1540 1541 1542 1542 1543 1543 1542 1542 1542 1542 1541 1540 1540 1539 1538 1538 1538 1537 1537 1537 1537 1538 1537 1537 1536 1536 1535 1535 1535 1535 1535 1535 1535 1534
1523 1522 1525 1526 1526 1528 1530 1531 1532 1533 1534 1535 1537 1539 1539 1540 1541 1542 1543 1543 1543 1543 1543 1543 1543 1542 1542 1541 1540 1540 1540 1539 1539 1539 1539 1539 1539 1538 1538 1537 1537 1537 1537 1537 1537 1537 1537 1537 1537
1523 1524 1526 1528 1529 1529 1530 1531 1532 1532 1533 1535 1536 1538 1539 1541 1542 1543 1543 1543 1544 1544 1544 1544 1543 1543 1543 1542 1542 1541 1541 1541 1541 1541 1541 1540 1540 1540 1540 1540 1540 1539 1539 1540 1539 1540 1540 1540 1539
1526 1527 1528 1529 1530 1531 1531 1532 1533 1533 1534 1535 1537 1538 1539 1541 1542 1542 1543 1544 1544 1544 1544 1544 1544 1544 1544 1543 1543 1543 1543 1542 1542 1542 1542 1542 1542 1542 1542 1542 1542 1541 1541 1541 1542 1542 1542 1542 1542
1526 1528 1530 1530 1531 1531 1532 1532 1533 1534 1535 1536 1537 1538 1539 1541 1542 1543 1543 1544 1544 1544 1544 1545 1545 1545 1545 1544 1544 1544 1544 1544 1544 1543 1544 1544 1543 1543 1543 1543 1543 1543 1543 1543 1543 1543 1543 1543 1543
1528 1529 1530 1530 1531 1531 1531 1532 1533 1533 1535 1536 1537 1538 1539 1540 1542 1542 1543 1544 1544 1544 1545 1545 1545 1545 1545 1545 1545 1545 1545 1544 1545 1545 1545 1545 1545 1545 1544 1545 1544 1544 1544 1544 1545 1545 1544 1545 1545
1529 1529 1529 1529 1530 1531 1531 1530 1531 1533 1534 1535 1536 1537 1539 1540 1541 1542 1543 1543 1544 1545 1545 1545 1545 1546 1546 1546 1546 1546 1546 1546 1546 1546 1546 1546 1546 1546 1546 1546 1546 1546 1546 1546 1546 1546 1546 1546 1546
1527 1527 1528 1528 1529 1530 1532 1531 1530 1532 1533 1534 1535 1536 1538 1539 1540 1541 1542 1543 1543 1544 1545 1545 1545 1546 1546 1546 1546 1547 1547 1547 1547 1547 1547 1547 1547 1547 1547 1547 1547 1547 1547 1547 1547 1547 1547 1547 1547
1526 1528 1528 1527 1527 1528 1528 1528 1529 1531 1532 1532 1534 1535 1536 1538 1539 1540 1541 1542 1543 1544 1544 1545 1546 1546 1546 1546 1547 1547 1547 1547 1547 1547 1547 1548 1548 1548 1548 1547 1548 1548 1548 1548 1548 1548 1548 1548 1549
1528 1526 1526 1526 1526 1527 1527 1526 1526 1529 1530 1530 1532 1533 1534 1535 1537 1539 1540 1541 1542 1543 1544 1545 1545 1546 1546 1547 1547 1547 1548 1548 1548 1548 1548 1548 1548 1548 1548 1548 1549 1549 1549 1549 1549 1549 1549 1549 1549
1523 1525 1526 1525 1525 1526 1525 1524 1524 1526 1528 1528 1529 1530 1532 1533 1536 1537 1538 1540 1541 1542 1543 1544 1545 1546 1546 1547 1547 1548 1548 1548 1548 1548 1548 1548 1548 1549 1549 1549 1549 1549 1550 1549 1550 1550 1550 1550 1550
1524 1526 1525 1525 1525 1526 1524 1522 1521 1523 1525 1526 1527 1527 1529 1531 1533 1535 1537 1538 1540 1541 1542 1543 1544 1545 1546 1546 1547 1548 1548 1549 1549 1548 1548 1549 1549 1549 1549 1550 1550 1550 1550 1550 1550 1550 1551 1551 1551
1523 1524 1524 1525 1524 1523 1524 1521 1518 1520 1523 1525 1525 1526 1527 1529 1531 1533 1535 1537 1538 1539 1541 1542 1543 1545 1545 1546 1547 1547 1548 1548 1549 1549 1549 1549 1549 1550 1550 1550 1551 1551 1551 1551 1550 1551 1551 1551 1551
1524 1521 1523 1524 1525 1523 1524 1525 1515 1515 1518 1521 1522 1524 1525 1527 1529 1531 1533 1535 1536 1538 1539 1541 1542 1543 1544 1545 1546 1547 1548 1549 1549 1549 1549 1550 1550 1550 1550 1551 1551 1551 1551 1551 1551 1551 1551 1551 1551
1521 1521 1522 1522 1522 1522 1520 1523 1514 1512 1515 1516 1519 1521 1523 1525 1527 1529 1531 1532 1534 1536 1537 1539 1541 1542 1543 1544 1545 1547 1548 1548 1549 1549 1550 1550 1550 1550 1550 1551 1551 1551 1551 1551 1551 1551 1551 1551 1551
1521 1522 1521 1520 1520 1527 1519 1521 1518 1511 1513 1514 1517 1519 1521 1523 1525 1527 1529 1530 1532 1534 1535 1537 1539 1540 1542 1543 1544 1546 1547 1548 1548 1549 1550 1550 1550 1550 1551 1551 1551 1551 1551 1551 1551 1551 1551 1551 1551
1521 1523 1528 1528 1527 1523 1516 1519 1516 1511 1513 1514 1516 1518 1519 1521 1523 1524 1526 1528 1530 1531 1533 1535 1537 1539 1540 1542 1543 1545 1546 1547 1548 1549 1549 1550 1550 1550 1550 1550 1550 1550 1551 1551 1551 1551 1551 1550 1550
1519 1520 1528 1533 1528 1519 1515 1517 1511 1512 1514 1515 1516 1517 1519 1520 1521 1523 1524 1526 1528 1529 1531 1533 1535 1537 1538 1540 1542 1543 1544 1546 1547 1548 1549 1549 1549 1550 1550 1550 1550 1550 1550 1550 1550 1550 1550 1550 1550
1519 1518 1516 1520 1520 1523 1514 1511 1509 1512 1513 1515 1516 1517 1518 1519 1520 1521 1523 1524 1526 1528 1529 1531 1533 1535 1537 1538 1540 1541 1543 1544 1545 1546 1547 1548 1549 1549 1549 1549 1549 1549 1549 1549 1549 1549 1549 1549 1549
1518 1516 1519 1522 1529 1527 1517 1513 1510 1509 1511 1513 1514 1516 1518 1519 1520 1521 1522 1523 1524 1526 1528 1530 1532 1534 1535 1537 1538 1539 1541 1542 1543 1545 1546 1547 1547 1548 1548 1548 1548 1548 1548 1548 1548 1548 1548 1548 1548
1518 1519 1517 1517 1518 1524 1522 1515 1506 1508 1510 1512 1513 1515 1517 1518 1519 1520 1521 1522 1523 1525 1526 1528 1530 1532 1533 1535 1537 1538 1539 1540 1541 1543 1544 1545 1546 1546 1547 1547 1548 1548 1548 1548 1547 1547 1547 1547 1547
1515 1514 1515 1520 1518 1517 1519 1515 1506 1509 1510 1512 1513 1515 1516 1517 1518 1519 1520 1521 1522 1523 1525 1526 1528 1530 1531 1533 1535 1536 1537 1538 1540 1541 1542 1543 1544 1545 1545 1546 1546 1547 1546 1547 1547 1546 1546 1546 1546